Starlink 30941

operational
NORAD ID: 58475 Int'l Des: 2023-186 Owner: SPXS Country: US Constellation: starlink
LEOCIRCULAR

Über Starlink 30941

Beschreibung wird geladen...

Live-Position

3D-Globus wird geladen...

Nächste Überflüge

Höhenverlauf

Altitude vs Time

uPlot chart will show altitude changes over time

Zweizeiliger Elementsatz

1 58475U 23186C 25305.55242501 -.00001441 00000-0 -91626-4 0 9998
2 58475 43.0074 43.9434 0002189 268.7911 91.2681 15.02521225106571
Epoch: 1. Nov. 2025 • Age: 23 hours

Aktueller Status

Höhe 562.2 km
Geschwindigkeit 7.58 km/s
Subsatellitenpunkt -17.37°S, 8.53°E
Startdatum 3. Dez. 2023
Alter 1.9 years
Typ internet

Technische Details

Klassifizierung Payload
Masse 730.00 kg
Trockenmasse 700.00 kg
Gesamtmasse 730.00 kg
Länge 0.30 m
Durchmesser 4.10 m
Spannweite 29.00 m
Form Box + pan
Hersteller SPXS
Bus-Typ Starlink V2M
Phasenstatus In Orbit
Besitzer/Staat SPXS/US

Große Konstellationen

Loading constellations...